World > North America > United States > Massachusetts

Hourly Millerville, MA Regional Weather

Feedback E-mail the Weather

Quick WX

Millerville, MA Weather Maps

°F °C°F °C
Millerville Weather Map
UTC Time: 7/1/2022, 08:45
Your Time:

Millerville, MA Regional Weather

Expires:202207010900;;483099
ASUS41 KGYX 010810
RWRGYX
WEATHER ROUNDUP FOR MAINE AND NEW HAMPSHIRE
NATIONAL WEATHER SERVICE GRAY ME
400 AM EDT FRI JUL 01 2022


MAZ007-012-024-CTZ003-RIZ002-NYZ038-NYZ072-010900-
SOUTHERN NEW ENGLAND AND NY
  
CITY           SKY/WX    TMP DP  RH WIND       PRES   REMARKS
BOSTON         MOCLDY    68  59  73 SW6       30.09S                  
WORCESTER      CLEAR     63  58  83 W8        30.11S                  
NANTUCKET      CLEAR     66  64  93 S8        30.13S                  
PROVIDENCE     CLEAR     65  61  87 S5        30.10F                  
HARTFORD       PTCLDY    66  60  81 S6        30.08F                  
ALBANY         MOCLDY    69  59  70 VRB6      30.05F                  
NEW YORK CITY  PTCLDY    77  63  61 W10       30.09S                  
$$


SKY/WX - Weather  TMP - Temperature  DP - Dew Point  RH - Humidity
WIND - Wind Direction/Speed PRES - Barometric Pressure VSB - Visibility
WCI - Wind Chill Index E13G22 Wind - East Wind 13 mph/Gusts of 22 mph

Trending Headlines

Millerville Radar Loop



Millerville Quick Facts


National Two Day Weather Forecast


E-mail the Millerville Weather Forecast

Voice your opinion or tell us about page issues...